STARLINK-36032

Last updated on Wed Dec 31 2025 00:02:06 GMT+0000 (Coordinated Universal Time)

1 66594U 25270G 25364.52287010 .00084235 00000+0 19960-2 0 9999 2 66594 43.0030 89.7467 0001247 201.7503 158.3301 15.40785092 6902
UTC large
Height (km)
Speed (km/s)
/
Latitude / Longitude
Inclination (degrees)
Orbital Period (minutes)
Azimuth
Elevation
Range (km)
Doppler Factor

Next 0 passes for location: London (51.5072 / 0.1276)

Sorry there are no passes over London.